P2-10 (47616 NORAD) Tracking and Keplerian Element Data

This shows tracking and keplerian element data for the satellite.

Feedback or suggestion? Click here.




ElementValue
Catalog47616
NameP2-10
Epoch Orbit1194
Epoch Day101.61515931
Epoch Year2021
RAAN163.9607
Inclination97.4956
Eccentricity0.0009206
Argument of Perigee346.1769
Mean Anonmoly13.9208
Mean Motion15.12497975
Decay Rate1.506E-05
L11 47616U 21006EH 21101.61515931 .00001506 00000-0 90162-4 0 9993
L22 47616 97.4956 163.9607 0009206 346.1769 13.9208 15.12497975 11949

Live tracking and technical data element details for P2-10 (NORAD 47616). P2-10 can be tracked NOW for your location showing map with azimuth and elevation plus other details from your city location.

Track the satellite on the map from your city or location and see movement details for azimuth, elevation, latitude, longitude, range, height, and movement on the map or in text.







IsCatalogInMostPopularTable: catalog: 47616, numindb: 16
Update: records affected: 1



GetName: 47616 P2-10

Hit Count: updated at: Tue, 13 Apr 2021 05:21:04 GMT